Weather History for Olathe New Century, KS

Change the Weather History Date:

Monday, August 11, 2014

  Actual Average Record
Temperature  
Mean Temperature 72 °F -  
Max Temperature 81 °F 85 °F 102 °F (2010)
Min Temperature 64 °F 63 °F 55 °F (2004)
Cooling Degree Days 8    
Growing Degree Days 22 (Base 50)    
Moisture  
Dew Point 64 °F    
Average Humidity 78    
Maximum Humidity 100    
Minimum Humidity 47    
Precipitation  
Precipitation 0.00 in - - ()
Sea Level Pressure  
Sea Level Pressure 30.05 in    
Wind  
Wind Speed 9 mph (NW)    
Max Wind Speed 21 mph    
Max Gust Speed 24 mph    
Visibility 9 miles    
Events      
Averages and records for this station are not official NWS values.
T = Trace of Precipitation, MM = Missing Value Source: NWS Daily Summary

Daily Weather History Graph

Daily Weather History Graph

Search for Another Location

Airport:

Trip Planner

Search our weather history database for the weather conditions in past years. The results will help you decide how hot, cold, wet, or windy it might be!

Date:

Astronomy

Aug. 11, 2014 Rise Set
Actual Time 6:29 AM CDT 8:19 PM CDT
Civil Twilight 6:00 AM CDT 8:47 PM CDT
Nautical Twilight 5:25 AM CDT 9:22 PM CDT
Astronomical Twilight 4:48 AM CDT 9:59 PM CDT
Moon 8:49 PM CDT (8/11) 7:34 AM CDT (8/11)
Length of Visible Light 14h 46m
Length of Day
13h 49m
Full, 99% of the Moon is Illuminated
Aug 11
Full
Aug 17
Last Quarter
Aug 25
New
Sep 2
First Quarter
Sep 8
Full

Hourly Weather History & Observations

Time (CDT) Temp. Heat Index Dew Point Humidity Pressure Visibility Wind Dir Wind Speed Gust Speed Precip Events Conditions
12:53 AM 69.1 °F - 68.0 °F 96% 30.04 in 8.0 mi WNW 3.5 mph - N/A   Clear
1:53 AM 68.0 °F - 68.0 °F 100% 30.03 in 10.0 mi WNW 5.8 mph - N/A   Clear
2:53 AM 66.9 °F - 66.9 °F 100% 30.01 in 8.0 mi WNW 5.8 mph - N/A   Clear
3:53 AM 66.9 °F - 66.0 °F 97% 30.02 in 8.0 mi NW 4.6 mph - N/A   Clear
4:53 AM 66.9 °F - 66.0 °F 97% 30.02 in 6.0 mi WNW 6.9 mph - N/A   Partly Cloudy
5:53 AM 66.9 °F - 66.0 °F 97% 30.01 in 7.0 mi WNW 5.8 mph - N/A   Mostly Cloudy
6:53 AM 66.0 °F - 66.0 °F 100% 30.02 in 4.0 mi West 4.6 mph - N/A   Clear
7:07 AM 66.9 °F - 66.9 °F 100% 30.05 in 5.0 mi West 4.6 mph - N/A   Partly Cloudy
7:53 AM 69.1 °F - 68.0 °F 96% 30.04 in 9.0 mi WNW 6.9 mph - N/A   Unknown
8:11 AM 70.0 °F - 68.0 °F 93% 30.07 in 9.0 mi WNW 8.1 mph - N/A   Scattered Clouds
8:53 AM 71.1 °F - 69.1 °F 93% 30.06 in 10.0 mi NW 12.7 mph 21.9 mph N/A   Clear
9:04 AM 72.0 °F - 69.1 °F 91% 30.08 in 10.0 mi NW 10.4 mph - N/A   Partly Cloudy
9:29 AM 73.0 °F - 70.0 °F 90% 30.09 in 10.0 mi NNW 11.5 mph - N/A   Mostly Cloudy
9:53 AM 75.0 °F - 70.0 °F 84% 30.06 in 10.0 mi NNW 11.5 mph - N/A   Mostly Cloudy
10:00 AM 75.0 °F - 70.0 °F 84% 30.09 in 10.0 mi NNW 12.7 mph - N/A   Mostly Cloudy
10:53 AM 75.9 °F - 69.1 °F 79% 30.07 in 10.0 mi NNW 12.7 mph - N/A   Scattered Clouds
11:53 AM 79.0 °F - 68.0 °F 69% 30.07 in 10.0 mi NNW 11.5 mph 21.9 mph N/A   Partly Cloudy
12:18 PM 80.1 °F 82.9 °F 69.1 °F 69% 30.10 in 10.0 mi NNW 16.1 mph - N/A   Scattered Clouds
12:53 PM 81.0 °F 83.3 °F 66.9 °F 62% 30.06 in 10.0 mi North 20.7 mph 24.2 mph N/A   Partly Cloudy
1:53 PM 81.0 °F 82.2 °F 63.0 °F 54% 30.06 in 10.0 mi NNW 19.6 mph - N/A   Partly Cloudy
2:53 PM 81.0 °F 81.7 °F 61.0 °F 50% 30.06 in 10.0 mi NW 15.0 mph 20.7 mph N/A   Partly Cloudy
3:53 PM 81.0 °F 81.3 °F 59.0 °F 47% 30.05 in 10.0 mi NNW 16.1 mph - N/A   Scattered Clouds
4:53 PM 79.0 °F - 57.9 °F 48% 30.04 in 10.0 mi NNW 17.3 mph 24.2 mph N/A   Partly Cloudy
5:53 PM 78.1 °F - 57.9 °F 50% 30.04 in 10.0 mi NNW 13.8 mph - N/A   Clear
6:53 PM 75.0 °F - 57.0 °F 53% 30.03 in 10.0 mi NNW 17.3 mph - N/A   Clear
7:53 PM 73.0 °F - 57.0 °F 57% 30.04 in 10.0 mi NNW 11.5 mph - N/A   Clear
8:53 PM 68.0 °F - 57.9 °F 70% 30.05 in 10.0 mi NNW 6.9 mph - N/A   Clear
9:53 PM 66.9 °F - 57.9 °F 73% 30.07 in 10.0 mi NNW 9.2 mph - N/A   Clear
10:53 PM 64.9 °F - 57.9 °F 78% 30.08 in 10.0 mi NW 5.8 mph - N/A   Clear
11:53 PM 64.9 °F - 57.0 °F 75% 30.08 in 10.0 mi NW 6.9 mph - N/A   Clear